When you browse on this site, cookies collect data to enhance your experience and personalize the content and advertising you see.
Visit our Privacy Policy to learn more. By continuing to use the site, you agree to this use of cookies and data.
  • In United Kingdom
  • List of Countries
  • For 7 days
  • Water Temperature
  • Weather Map
  • Weather Widgets
  • user-avatar
    Login

    Hourly Weather Tatabanya

    Today, 2 April, Thursday

    Time Temperature Precipitation Wind Pressure Humidity
    00:00 +2°C° 0 mm 1 mps 742 mmHg 47%
    01:00 +1°C° 0 mm 1 mps 742 mmHg 49%
    02:00 +1°C° 0 mm 1 mps 742 mmHg 49%
    03:00 +1°C° 0 mm 1 mps 742 mmHg 49%
    04:00 +1°C° 0 mm 1 mps 741 mmHg 49%
    05:00 +2°C° 0 mm 1 mps 741 mmHg 48%
    06:00 +2°C° 0 mm 1 mps 741 mmHg 47%
    07:00 +3°C° 0 mm 1 mps 742 mmHg 45%
    08:00 +4°C° 0 mm 2 mps 742 mmHg 41%
    09:00 +6°C° 0 mm 2 mps 741 mmHg 37%
    10:00 +7°C° 0 mm 3 mps 741 mmHg 32%
    11:00 +8°C° 0 mm 3 mps 741 mmHg 32%
    12:00 +8°C° 0 mm 3 mps 741 mmHg 32%
    13:00 +9°C° 0 mm 3 mps 740 mmHg 32%
    14:00 +9°C° 0 mm 3 mps 740 mmHg 34%
    15:00 +9°C° 0 mm 3 mps 739 mmHg 36%
    16:00 +9°C° 0 mm 3 mps 738 mmHg 38%
    17:00 +8°C° 0 mm 3 mps 738 mmHg 45%
    18:00 +6°C° 0 mm 2 mps 738 mmHg 52%
    19:00 +5°C° 0 mm 2 mps 738 mmHg 59%
    20:00 +4°C° 0 mm 2 mps 738 mmHg 63%
    21:00 +4°C° 0 mm 2 mps 738 mmHg 67%
    22:00 +3°C° 0 mm 2 mps 738 mmHg 70%
    23:00 +3°C° 0 mm 2 mps 738 mmHg 72%

    Tomorrow, 3 April, Friday

    Time Temperature Precipitation Wind Pressure Humidity
    00:00 +2°C° 0 mm 2 mps 738 mmHg 74%
    01:00 +2°C° 0 mm 2 mps 738 mmHg 75%
    02:00 +2°C° 0 mm 2 mps 738 mmHg 77%
    03:00 +2°C° 0 mm 2 mps 737 mmHg 79%
    04:00 +1°C° 0 mm 2 mps 737 mmHg 81%
    05:00 +3°C° 0 mm 1 mps 738 mmHg 79%
    06:00 +4°C° 0 mm 1 mps 738 mmHg 76%
    07:00 +5°C° 0 mm 1 mps 738 mmHg 74%
    08:00 +5°C° 0 mm 2 mps 739 mmHg 66%
    09:00 +7°C° 0 mm 2 mps 739 mmHg 59%
    10:00 +9°C° 0 mm 3 mps 739 mmHg 51%
    11:00 +10°C° 0 mm 3 mps 739 mmHg 49%
    12:00 +12°C° 0 mm 4 mps 739 mmHg 47%
    13:00 +13°C° 0 mm 4 mps 739 mmHg 44%
    14:00 +12°C° 0 mm 4 mps 739 mmHg 46%
    15:00 +12°C° 0 mm 4 mps 739 mmHg 47%
    16:00 +12°C° 0 mm 4 mps 739 mmHg 48%
    17:00 +10°C° 0 mm 3 mps 739 mmHg 54%
    18:00 +9°C° 0 mm 3 mps 739 mmHg 60%
    19:00 +7°C° 0 mm 2 mps 740 mmHg 66%
    20:00 +7°C° 0 mm 2 mps 740 mmHg 67%
    21:00 +6°C° 0 mm 2 mps 741 mmHg 69%
    22:00 +7°C° 0 mm 1 mps 741 mmHg 71%
    23:00 +5°C° 0 mm 2 mps 742 mmHg 73%

    Day after tomorrow, 4 April, Saturday

    Time Temperature Precipitation Wind Pressure Humidity
    00:00 +5°C° 0 mm 2 mps 742 mmHg 75%
    01:00 +4°C° 0 mm 2 mps 743 mmHg 77%
    02:00 +4°C° 0 mm 2 mps 743 mmHg 79%
    03:00 +4°C° 0 mm 2 mps 743 mmHg 81%
    04:00 +3°C° 0 mm 2 mps 743 mmHg 84%
    05:00 +4°C° 0 mm 2 mps 744 mmHg 81%
    06:00 +5°C° 0 mm 2 mps 745 mmHg 78%
    07:00 +4°C° 0 mm 3 mps 745 mmHg 75%
    08:00 +7°C° 0 mm 3 mps 746 mmHg 67%
    09:00 +8°C° 0 mm 4 mps 746 mmHg 59%
    10:00 +10°C° 0 mm 4 mps 746 mmHg 51%
    11:00 +11°C° 0 mm 4 mps 746 mmHg 48%
    12:00 +12°C° 0 mm 4 mps 747 mmHg 45%
    13:00 +13°C° 0 mm 4 mps 747 mmHg 42%
    14:00 +13°C° 0 mm 4 mps 747 mmHg 41%
    15:00 +13°C° 0 mm 3 mps 747 mmHg 41%
    16:00 +13°C° 0 mm 3 mps 747 mmHg 40%
    17:00 +12°C° 0 mm 2 mps 747 mmHg 46%
    18:00 +9°C° 0 mm 2 mps 747 mmHg 53%
    19:00 +8°C° 0 mm 2 mps 748 mmHg 60%
    20:00 +7°C° 0 mm 2 mps 748 mmHg 62%
    21:00 +7°C° 0 mm 2 mps 749 mmHg 64%
    22:00 +7°C° 0 mm 1 mps 750 mmHg 66%
    23:00 +6°C° 0 mm 2 mps 750 mmHg 66%

    5 April, Sunday

    Time Temperature Precipitation Wind Pressure Humidity
    00:00 +5°C° 0 mm 2 mps 750 mmHg 66%
    01:00 +5°C° 0 mm 2 mps 750 mmHg 66%
    02:00 +4°C° 0 mm 2 mps 751 mmHg 65%
    03:00 +4°C° 0 mm 2 mps 751 mmHg 65%
    04:00 +3°C° 0 mm 3 mps 751 mmHg 64%
    05:00 +3°C° 0 mm 3 mps 751 mmHg 61%
    06:00 +4°C° 0 mm 3 mps 751 mmHg 57%
    07:00 +5°C° 0 mm 4 mps 751 mmHg 53%
    08:00 +6°C° 0 mm 4 mps 751 mmHg 49%
    09:00 +8°C° 0 mm 4 mps 752 mmHg 44%
    10:00 +9°C° 0 mm 5 mps 752 mmHg 39%
    11:00 +11°C° 0 mm 4 mps 752 mmHg 39%
    12:00 +12°C° 0 mm 4 mps 751 mmHg 38%
    13:00 +13°C° 0 mm 4 mps 751 mmHg 38%
    14:00 +13°C° 0 mm 4 mps 751 mmHg 41%
    15:00 +13°C° 0 mm 4 mps 750 mmHg 43%
    16:00 +13°C° 0 mm 4 mps 750 mmHg 46%
    17:00 +12°C° 0 mm 3 mps 750 mmHg 52%
    18:00 +10°C° 0 mm 3 mps 750 mmHg 59%
    19:00 +9°C° 0 mm 2 mps 750 mmHg 66%
    20:00 +8°C° 0 mm 3 mps 750 mmHg 67%
    21:00 +8°C° 0 mm 3 mps 751 mmHg 69%
    22:00 +7°C° 0 mm 3 mps 751 mmHg 70%
    23:00 +7°C° 0 mm 3 mps 751 mmHg 71%

    6 April, Monday

    Time Temperature Precipitation Wind Pressure Humidity
    00:00 +5°C° 0 mm 3 mps 751 mmHg 73%
    01:00 +5°C° 0 mm 3 mps 751 mmHg 74%
    02:00 +5°C° 0 mm 3 mps 751 mmHg 75%
    03:00 +4°C° 0 mm 3 mps 751 mmHg 76%
    04:00 +5°C° 0 mm 2 mps 752 mmHg 78%
    05:00 +4°C° 0 mm 3 mps 752 mmHg 73%
    06:00 +5°C° 0 mm 4 mps 752 mmHg 68%
    07:00 +6°C° 0 mm 4 mps 753 mmHg 63%
    08:00 +7°C° 0 mm 5 mps 753 mmHg 56%
    09:00 +9°C° 0 mm 6 mps 753 mmHg 49%
    10:00 +10°C° 0 mm 6 mps 753 mmHg 42%
    11:00 +11°C° 0 mm 6 mps 753 mmHg 42%
    12:00 +13°C° 0 mm 6 mps 753 mmHg 42%
    13:00 +13°C° 0 mm 6 mps 753 mmHg 41%
    14:00 +14°C° 0 mm 6 mps 753 mmHg 41%
    15:00 +14°C° 0 mm 6 mps 753 mmHg 40%
    16:00 +14°C° 0 mm 6 mps 752 mmHg 40%
    17:00 +12°C° 0 mm 5 mps 752 mmHg 45%
    18:00 +10°C° 0 mm 4 mps 752 mmHg 51%
    19:00 +9°C° 0 mm 3 mps 752 mmHg 56%
    20:00 +8°C° 0 mm 3 mps 752 mmHg 59%
    21:00 +7°C° 0 mm 3 mps 753 mmHg 62%
    22:00 +7°C° 0 mm 2 mps 753 mmHg 65%
    23:00 +6°C° 0 mm 2 mps 753 mmHg 65%

    7 April, Tuesday

    Time Temperature Precipitation Wind Pressure Humidity
    00:00 +6°C° 0 mm 2 mps 753 mmHg 65%
    01:00 +5°C° 0 mm 2 mps 753 mmHg 66%
    02:00 +5°C° 0 mm 2 mps 753 mmHg 63%
    03:00 +3°C° 0 mm 3 mps 753 mmHg 61%
    04:00 +3°C° 0 mm 3 mps 754 mmHg 58%
    05:00 +3°C° 0 mm 3 mps 754 mmHg 55%
    06:00 +4°C° 0 mm 4 mps 754 mmHg 52%
    07:00 +5°C° 0 mm 4 mps 755 mmHg 48%
    08:00 +6°C° 0 mm 4 mps 755 mmHg 45%
    09:00 +8°C° 0 mm 4 mps 755 mmHg 42%
    10:00 +10°C° 0 mm 4 mps 755 mmHg 38%
    11:00 +12°C° 0 mm 4 mps 755 mmHg 37%
    12:00 +13°C° 0 mm 4 mps 755 mmHg 35%
    13:00 +14°C° 0 mm 4 mps 755 mmHg 33%
    14:00 +14°C° 0 mm 3 mps 754 mmHg 33%
    15:00 +14°C° 0 mm 3 mps 754 mmHg 33%
    16:00 +15°C° 0 mm 2 mps 754 mmHg 33%
    17:00 +13°C° 0 mm 2 mps 754 mmHg 38%
    18:00 +12°C° 0 mm 1 mps 753 mmHg 43%
    19:00 +9°C° 0 mm 0 mps 753 mmHg 48%
    20:00 +8°C° 0 mm 0 mps 753 mmHg 50%
    21:00 +8°C° 0 mm 0 mps 754 mmHg 52%
    22:00 +7°C° 0 mm 0 mps 754 mmHg 54%
    23:00 +7°C° 0 mm 0 mps 754 mmHg 55%
    Show more